EZY25C EGCC-EDDH

Flight info

Callsign EZY25C
Flight time 1h 14m
Altitude 33000
Route SONEX L975 DESIG L603 LAMSO/N0460F390 DCT VALAM DCT PABCO M105 RIBSO RIBSO7A
Aircraft A20N/M-SDE2E3FGHIRWXY/LB1

Departure

Time 2026-05-07 16:19
Airport Manchester Airport (EGCC)

Arrival

Time 2026-05-07 17:34
Airport Hamburg Helmut Schmidt Airport (EDDH)
Time Latitude Longitude Altitude Speed Heading
2026-05-07 15:51 53.36636 -2.28597 215 ft 0 kts 135°
2026-05-07 16:05 53.36641 -2.28605 215 ft 2 kts 134°
2026-05-07 16:05 53.36650 -2.28623 215 ft 2 kts 135°
2026-05-07 16:06 53.36662 -2.28640 215 ft 2 kts 159°
2026-05-07 16:06 53.36676 -2.28642 216 ft 2 kts 198°
2026-05-07 16:06 53.36685 -2.28635 216 ft 0 kts 222°
2026-05-07 16:06 53.36690 -2.28626 216 ft 0 kts 225°
2026-05-07 16:10 53.36689 -2.28627 216 ft 0 kts 225°
2026-05-07 16:10 53.36671 -2.28658 215 ft 6 kts 225°
2026-05-07 16:10 53.36648 -2.28724 216 ft 6 kts 254°
2026-05-07 16:11 53.36624 -2.28771 217 ft 5 kts 202°
2026-05-07 16:11 53.36566 -2.28739 217 ft 13 kts 136°
2026-05-07 16:11 53.36491 -2.28610 215 ft 16 kts 134°
2026-05-07 16:11 53.36430 -2.28506 215 ft 7 kts 135°
2026-05-07 16:12 53.36396 -2.28474 216 ft 4 kts 178°
2026-05-07 16:12 53.36351 -2.28465 218 ft 11 kts 157°
2026-05-07 16:12 53.36268 -2.28331 222 ft 21 kts 134°
2026-05-07 16:12 53.36176 -2.28171 231 ft 16 kts 133°
2026-05-07 16:13 53.36103 -2.28047 235 ft 13 kts 141°
2026-05-07 16:13 53.36035 -2.27954 238 ft 12 kts 141°
2026-05-07 16:13 53.35967 -2.27871 238 ft 12 kts 156°
2026-05-07 16:13 53.35879 -2.27854 238 ft 12 kts 168°
2026-05-07 16:14 53.35842 -2.27800 239 ft 5 kts 124°
2026-05-07 16:14 53.35807 -2.27724 240 ft 12 kts 133°
2026-05-07 16:14 53.35750 -2.27657 242 ft 9 kts 158°
2026-05-07 16:14 53.35686 -2.27615 242 ft 9 kts 153°
2026-05-07 16:15 53.35634 -2.27547 244 ft 9 kts 140°
2026-05-07 16:15 53.35584 -2.27477 245 ft 9 kts 140°
2026-05-07 16:15 53.35537 -2.27413 246 ft 8 kts 143°
2026-05-07 16:15 53.35490 -2.27352 248 ft 8 kts 140°
2026-05-07 16:16 53.35449 -2.27295 250 ft 6 kts 140°
2026-05-07 16:16 53.35413 -2.27244 252 ft 7 kts 140°
2026-05-07 16:16 53.35363 -2.27196 253 ft 9 kts 168°
2026-05-07 16:16 53.35278 -2.27210 251 ft 15 kts 192°
2026-05-07 16:17 53.35186 -2.27240 250 ft 11 kts 192°
2026-05-07 16:17 53.35100 -2.27270 248 ft 13 kts 191°
2026-05-07 16:17 53.35018 -2.27307 246 ft 11 kts 213°
2026-05-07 16:17 53.34955 -2.27427 242 ft 15 kts 231°
2026-05-07 16:18 53.34880 -2.27583 236 ft 18 kts 232°
2026-05-07 16:18 53.34824 -2.27697 231 ft 8 kts 231°
2026-05-07 16:18 53.34782 -2.27783 230 ft 11 kts 230°
2026-05-07 16:18 53.34692 -2.27972 226 ft 45 kts 231°
2026-05-07 16:19 53.34332 -2.28715 207 ft 117 kts 231°
2026-05-07 16:19 53.33699 -2.30040 258 ft 167 kts 232°
2026-05-07 16:19 53.32972 -2.31572 831 ft 171 kts 231°
2026-05-07 16:19 53.32242 -2.33151 1581 ft 173 kts 232°
2026-05-07 16:20 53.31768 -2.34955 2303 ft 177 kts 262°
2026-05-07 16:20 53.32048 -2.36995 2795 ft 193 kts 295°
2026-05-07 16:20 53.32777 -2.39000 3203 ft 212 kts 301°
2026-05-07 16:20 53.33781 -2.40967 3506 ft 241 kts 323°
2026-05-07 16:21 53.35389 -2.42135 3983 ft 263 kts 346°
2026-05-07 16:21 53.37228 -2.42728 4570 ft 276 kts 349°
2026-05-07 16:21 53.39108 -2.43369 5378 ft 281 kts 345°
2026-05-07 16:21 53.40994 -2.44251 6283 ft 283 kts 342°
2026-05-07 16:22 53.42852 -2.45207 7173 ft 286 kts 342°
2026-05-07 16:22 53.44825 -2.45544 8011 ft 293 kts 10°
2026-05-07 16:22 53.46661 -2.44136 8865 ft 295 kts 43°
2026-05-07 16:22 53.47809 -2.41416 9676 ft 294 kts 74°
2026-05-07 16:23 53.48105 -2.38083 10468 ft 294 kts 91°
2026-05-07 16:23 53.48184 -2.34580 10949 ft 310 kts 89°
2026-05-07 16:23 53.48390 -2.30878 11348 ft 329 kts 85°
2026-05-07 16:23 53.48739 -2.26991 11730 ft 348 kts 83°
2026-05-07 16:24 53.49183 -2.22881 12089 ft 367 kts 82°
2026-05-07 16:24 53.49649 -2.18596 12393 ft 384 kts 82°
2026-05-07 16:24 53.50130 -2.14077 12725 ft 399 kts 82°
2026-05-07 16:24 53.50613 -2.09487 13312 ft 405 kts 82°
2026-05-07 16:25 53.51102 -2.04842 14024 ft 408 kts 82°
2026-05-07 16:25 53.51593 -2.00148 14707 ft 411 kts 82°
2026-05-07 16:25 53.52082 -1.95418 15341 ft 415 kts 83°
2026-05-07 16:25 53.52307 -1.90628 15952 ft 417 kts 92°
2026-05-07 16:26 53.52041 -1.85769 16569 ft 418 kts 102°
2026-05-07 16:26 53.51344 -1.81053 17159 ft 420 kts 108°
2026-05-07 16:26 53.50505 -1.76336 17723 ft 424 kts 108°
2026-05-07 16:26 53.49939 -1.73232 18085 ft 427 kts 108°
2026-05-07 16:27 53.48785 -1.66857 18797 ft 432 kts 108°
2026-05-07 16:27 53.47919 -1.62014 19332 ft 435 kts 108°
2026-05-07 16:27 53.47060 -1.57188 19853 ft 438 kts 108°
2026-05-07 16:27 53.46189 -1.52309 20366 ft 441 kts 108°
2026-05-07 16:28 53.45301 -1.47362 20875 ft 444 kts 108°
2026-05-07 16:28 53.44408 -1.42395 21373 ft 447 kts 108°
2026-05-07 16:28 53.43502 -1.37373 21860 ft 450 kts 108°
2026-05-07 16:28 53.42596 -1.32361 22332 ft 452 kts 109°
2026-05-07 16:29 53.41689 -1.27364 22783 ft 455 kts 108°
2026-05-07 16:29 53.40776 -1.22328 23218 ft 458 kts 108°
2026-05-07 16:29 53.39849 -1.17235 23640 ft 460 kts 108°
2026-05-07 16:29 53.38914 -1.12111 24053 ft 463 kts 108°
2026-05-07 16:30 53.37968 -1.06943 24446 ft 465 kts 108°
2026-05-07 16:30 53.37020 -1.01783 24821 ft 467 kts 108°
2026-05-07 16:30 53.36067 -0.96605 25309 ft 465 kts 108°
2026-05-07 16:30 53.35118 -0.91463 25876 ft 462 kts 108°
2026-05-07 16:31 53.34184 -0.86416 26417 ft 459 kts 108°
2026-05-07 16:31 53.33240 -0.81328 26917 ft 457 kts 108°
2026-05-07 16:31 53.32305 -0.76304 27410 ft 455 kts 108°
2026-05-07 16:31 53.31359 -0.71244 27905 ft 453 kts 108°
2026-05-07 16:32 53.30427 -0.66260 28391 ft 451 kts 108°
2026-05-07 16:32 53.29496 -0.61299 28889 ft 448 kts 108°
2026-05-07 16:32 53.28569 -0.56369 29370 ft 446 kts 108°
2026-05-07 16:32 53.27651 -0.51503 29835 ft 444 kts 108°
2026-05-07 16:33 53.26720 -0.46583 30301 ft 442 kts 108°
2026-05-07 16:33 53.25806 -0.41758 30744 ft 440 kts 108°
2026-05-07 16:33 53.24881 -0.36894 31175 ft 438 kts 108°
2026-05-07 16:33 53.23964 -0.32082 31545 ft 438 kts 109°
2026-05-07 16:34 53.23042 -0.27254 31854 ft 438 kts 109°
2026-05-07 16:34 53.22112 -0.22397 32121 ft 439 kts 109°
2026-05-07 16:34 53.21191 -0.17603 32382 ft 440 kts 109°
2026-05-07 16:34 53.20263 -0.12781 32633 ft 441 kts 109°
2026-05-07 16:35 53.19315 -0.07871 32870 ft 441 kts 109°
2026-05-07 16:35 53.18378 -0.03032 33024 ft 443 kts 109°
2026-05-07 16:35 53.17445 0.01776 33029 ft 443 kts 109°
2026-05-07 16:36 53.15543 0.11534 33033 ft 443 kts 109°
2026-05-07 16:36 53.14104 0.21449 33032 ft 445 kts 96°
2026-05-07 16:37 53.14010 0.31743 33037 ft 446 kts 91°
2026-05-07 16:37 53.14037 0.42037 33037 ft 445 kts 91°
2026-05-07 16:38 53.14039 0.52244 33037 ft 446 kts 91°
2026-05-07 16:38 53.14021 0.62549 33038 ft 445 kts 91°
2026-05-07 16:39 53.13988 0.72804 33036 ft 445 kts 92°
2026-05-07 16:39 53.13947 0.83083 33036 ft 445 kts 91°
2026-05-07 16:40 53.13895 0.93367 33037 ft 445 kts 91°
2026-05-07 16:40 53.13834 1.03572 33038 ft 445 kts 91°
2026-05-07 16:41 53.13765 1.13867 33042 ft 445 kts 91°
2026-05-07 16:41 53.13688 1.24082 33053 ft 445 kts 91°
2026-05-07 16:42 53.13601 1.34386 33056 ft 445 kts 91°
2026-05-07 16:42 53.13505 1.44655 33062 ft 445 kts 91°
2026-05-07 16:43 53.13400 1.54891 33063 ft 445 kts 91°
2026-05-07 16:43 53.13287 1.65146 33065 ft 444 kts 92°
2026-05-07 16:44 53.13165 1.75379 33069 ft 444 kts 92°
2026-05-07 16:44 53.13034 1.85613 33070 ft 444 kts 92°
2026-05-07 16:45 53.12895 1.95862 33072 ft 445 kts 92°
2026-05-07 16:45 53.12746 2.06124 33076 ft 445 kts 92°
2026-05-07 16:46 53.12589 2.16361 33077 ft 445 kts 92°
2026-05-07 16:46 53.12423 2.26614 33078 ft 444 kts 92°
2026-05-07 16:47 53.12248 2.36850 33077 ft 444 kts 92°
2026-05-07 16:47 53.12066 2.47031 33077 ft 445 kts 92°
2026-05-07 16:48 53.11873 2.57301 33077 ft 445 kts 92°
2026-05-07 16:48 53.11672 2.67541 33077 ft 446 kts 92°
2026-05-07 16:49 53.11460 2.77849 33077 ft 445 kts 92°
2026-05-07 16:49 53.11241 2.88063 33077 ft 445 kts 92°
2026-05-07 16:50 53.11014 2.98331 33078 ft 445 kts 92°
2026-05-07 16:50 53.10777 3.08604 33078 ft 445 kts 92°
2026-05-07 16:51 53.10532 3.18828 33079 ft 446 kts 92°
2026-05-07 16:51 53.10277 3.29089 33080 ft 446 kts 92°
2026-05-07 16:52 53.10012 3.39401 33080 ft 446 kts 92°
2026-05-07 16:52 53.09741 3.49618 33082 ft 446 kts 92°
2026-05-07 16:53 53.09459 3.59904 33080 ft 446 kts 92°
2026-05-07 16:53 53.09170 3.70143 33080 ft 446 kts 93°
2026-05-07 16:54 53.08870 3.80424 33080 ft 446 kts 93°
2026-05-07 16:54 53.08563 3.90662 33078 ft 446 kts 93°
2026-05-07 16:55 53.08246 4.00949 33077 ft 446 kts 93°
2026-05-07 16:55 53.07921 4.11174 33072 ft 446 kts 93°
2026-05-07 16:56 53.07587 4.21450 33075 ft 447 kts 93°
2026-05-07 16:56 53.07068 4.36895 33074 ft 448 kts 93°
2026-05-07 16:57 53.06709 4.47183 33073 ft 448 kts 93°
2026-05-07 16:57 53.06344 4.57423 33074 ft 448 kts 93°
2026-05-07 16:58 53.05966 4.67770 33077 ft 449 kts 94°
2026-05-07 16:58 53.05580 4.78099 33074 ft 449 kts 94°
2026-05-07 16:59 53.05186 4.88429 33074 ft 449 kts 94°
2026-05-07 16:59 53.04783 4.98748 33075 ft 450 kts 94°
2026-05-07 17:00 53.04373 5.09034 33077 ft 451 kts 94°
2026-05-07 17:00 53.03949 5.19430 33078 ft 451 kts 94°
2026-05-07 17:01 53.03515 5.29773 33080 ft 452 kts 94°
2026-05-07 17:01 53.03384 5.40165 33078 ft 452 kts 88°
2026-05-07 17:02 53.03886 5.50513 33082 ft 453 kts 84°
2026-05-07 17:02 53.04558 5.60905 33081 ft 454 kts 84°
2026-05-07 17:03 53.05221 5.71299 33079 ft 456 kts 85°
2026-05-07 17:03 53.05875 5.81769 33082 ft 456 kts 84°
2026-05-07 17:04 53.06513 5.92174 33084 ft 455 kts 84°
2026-05-07 17:04 53.07145 6.02617 33078 ft 455 kts 84°
2026-05-07 17:05 53.07765 6.13026 33074 ft 456 kts 85°
2026-05-07 17:05 53.08382 6.23541 33071 ft 457 kts 85°
2026-05-07 17:06 53.08986 6.34014 33065 ft 458 kts 85°
2026-05-07 17:06 53.09583 6.44529 33068 ft 458 kts 85°
2026-05-07 17:07 53.10172 6.55047 33061 ft 459 kts 85°
2026-05-07 17:07 53.10750 6.65534 33057 ft 459 kts 85°
2026-05-07 17:08 53.11318 6.76036 33057 ft 459 kts 85°
2026-05-07 17:08 53.11881 6.86627 33049 ft 460 kts 85°
2026-05-07 17:09 53.12433 6.97148 33050 ft 460 kts 85°
2026-05-07 17:09 53.12982 7.07744 33038 ft 461 kts 85°
2026-05-07 17:10 53.13920 7.18234 33039 ft 462 kts 78°
2026-05-07 17:10 53.15543 7.28562 33043 ft 462 kts 72°
2026-05-07 17:11 53.17553 7.38708 33041 ft 462 kts 72°
2026-05-07 17:11 53.19534 7.48805 33040 ft 463 kts 72°
2026-05-07 17:12 53.21508 7.59018 33044 ft 464 kts 72°
2026-05-07 17:12 53.23481 7.69262 33047 ft 464 kts 73°
2026-05-07 17:13 53.25437 7.79465 33051 ft 465 kts 73°
2026-05-07 17:13 53.27397 7.89749 33047 ft 466 kts 73°
2026-05-07 17:14 53.29342 8.00000 33050 ft 464 kts 73°
2026-05-07 17:14 53.31262 8.10193 33026 ft 460 kts 73°
2026-05-07 17:15 53.32216 8.15249 32679 ft 457 kts 72°
2026-05-07 17:15 53.33268 8.20224 31823 ft 461 kts 69°
2026-05-07 17:15 53.34402 8.25193 30719 ft 469 kts 68°
2026-05-07 17:15 53.35583 8.30288 29381 ft 469 kts 68°
2026-05-07 17:16 53.36749 8.35307 27595 ft 471 kts 68°
2026-05-07 17:16 53.37905 8.40314 26319 ft 465 kts 68°
2026-05-07 17:16 53.39069 8.45379 25550 ft 468 kts 68°
2026-05-07 17:16 53.40256 8.50445 24660 ft 469 kts 66°
2026-05-07 17:17 53.41538 8.55350 23862 ft 463 kts 65°
2026-05-07 17:17 53.42851 8.60207 23341 ft 460 kts 64°
2026-05-07 17:17 53.44168 8.65057 22755 ft 456 kts 65°
2026-05-07 17:17 53.45477 8.69887 22138 ft 451 kts 65°
2026-05-07 17:18 53.46761 8.74640 21517 ft 447 kts 65°
2026-05-07 17:18 53.48027 8.79344 20904 ft 442 kts 65°
2026-05-07 17:18 53.49275 8.83992 20281 ft 437 kts 65°
2026-05-07 17:18 53.50511 8.88616 19664 ft 433 kts 65°
2026-05-07 17:19 53.51719 8.93142 19055 ft 429 kts 65°
2026-05-07 17:19 53.53027 8.97597 18442 ft 424 kts 58°
2026-05-07 17:19 53.54773 9.01546 17826 ft 419 kts 47°
2026-05-07 17:19 53.56895 9.04815 17223 ft 415 kts 37°
2026-05-07 17:20 53.59206 9.07640 16621 ft 411 kts 34°
2026-05-07 17:20 53.61521 9.10362 16019 ft 408 kts 34°
2026-05-07 17:20 53.63825 9.13070 15410 ft 404 kts 34°
2026-05-07 17:20 53.66113 9.15781 14799 ft 401 kts 34°
2026-05-07 17:21 53.68355 9.18454 14195 ft 398 kts 35°
2026-05-07 17:21 53.70620 9.21170 13581 ft 395 kts 35°
2026-05-07 17:21 53.72833 9.23832 12968 ft 392 kts 35°
2026-05-07 17:21 53.74930 9.26597 12364 ft 388 kts 44°
2026-05-07 17:22 53.76515 9.30220 11727 ft 384 kts 63°
2026-05-07 17:22 53.77322 9.34468 11103 ft 380 kts 81°
2026-05-07 17:22 53.77262 9.38911 10482 ft 377 kts 101°
2026-05-07 17:22 53.76321 9.42928 10137 ft 366 kts 121°
2026-05-07 17:23 53.74664 9.46004 9886 ft 354 kts 142°
2026-05-07 17:23 53.72494 9.47866 9651 ft 342 kts 159°
2026-05-07 17:23 53.70284 9.49014 9399 ft 327 kts 163°
2026-05-07 17:23 53.68150 9.49998 9120 ft 312 kts 165°
2026-05-07 17:24 53.66067 9.50408 8853 ft 299 kts 179°
2026-05-07 17:24 53.64012 9.50236 8594 ft 287 kts 183°
2026-05-07 17:24 53.62070 9.49965 8244 ft 281 kts 184°
2026-05-07 17:24 53.60148 9.49669 7744 ft 279 kts 184°
2026-05-07 17:25 53.58222 9.49357 7242 ft 277 kts 184°
2026-05-07 17:25 53.56327 9.49038 6756 ft 276 kts 184°
2026-05-07 17:25 53.54427 9.48709 6270 ft 274 kts 184°
2026-05-07 17:25 53.52526 9.48372 5821 ft 274 kts 184°
2026-05-07 17:26 53.50645 9.48373 5415 ft 269 kts 164°
2026-05-07 17:26 53.49033 9.49691 5033 ft 261 kts 134°
2026-05-07 17:26 53.48110 9.52203 4651 ft 253 kts 101°
2026-05-07 17:26 53.48015 9.55111 4310 ft 249 kts 86°
2026-05-07 17:27 53.48134 9.57996 3942 ft 248 kts 84°
2026-05-07 17:27 53.48287 9.60847 3584 ft 247 kts 84°
2026-05-07 17:27 53.48446 9.63687 3315 ft 243 kts 84°
2026-05-07 17:27 53.48605 9.66476 3168 ft 235 kts 84°
2026-05-07 17:28 53.48869 9.69112 2995 ft 220 kts 72°
2026-05-07 17:28 53.49500 9.71323 2969 ft 203 kts 59°
2026-05-07 17:28 53.50303 9.73148 2958 ft 188 kts 52°
2026-05-07 17:28 53.51160 9.74802 2973 ft 187 kts 51°
2026-05-07 17:29 53.51983 9.76386 3058 ft 171 kts 51°
2026-05-07 17:29 53.52721 9.77844 2831 ft 159 kts 52°
2026-05-07 17:29 53.53401 9.79218 2613 ft 148 kts 53°
2026-05-07 17:29 53.54028 9.80494 2423 ft 137 kts 53°
2026-05-07 17:30 53.54632 9.81732 2271 ft 138 kts 53°
2026-05-07 17:30 53.55244 9.82986 2096 ft 137 kts 53°
2026-05-07 17:30 53.55845 9.84202 1928 ft 137 kts 52°
2026-05-07 17:30 53.56451 9.85431 1760 ft 136 kts 54°
2026-05-07 17:31 53.57045 9.86686 1556 ft 136 kts 53°
2026-05-07 17:31 53.57642 9.87926 1331 ft 135 kts 53°
2026-05-07 17:31 53.58244 9.89140 1158 ft 135 kts 52°
2026-05-07 17:31 53.58845 9.90336 1011 ft 135 kts 53°
2026-05-07 17:32 53.59440 9.91559 807 ft 134 kts 51°
2026-05-07 17:32 53.60035 9.92768 629 ft 134 kts 51°
2026-05-07 17:32 53.60633 9.93969 470 ft 134 kts 51°
2026-05-07 17:32 53.61024 9.94770 349 ft 133 kts 50°
2026-05-07 17:33 53.61820 9.96358 125 ft 133 kts 53°
2026-05-07 17:33 53.62401 9.97541 29 ft 126 kts 51°
2026-05-07 17:33 53.62859 9.98467 38 ft 78 kts 52°
2026-05-07 17:33 53.63153 9.99053 35 ft 61 kts 52°
2026-05-07 17:34 53.63296 9.99361 32 ft 11 kts 70°
2026-05-07 17:34 53.63293 9.99492 32 ft 6 kts 101°
2026-05-07 17:34 53.63286 9.99553 32 ft 2 kts 101°
2026-05-07 17:34 53.63285 9.99560 32 ft 0 kts 101°
2026-05-07 17:35 53.63285 9.99562 32 ft 0 kts 99°
2026-05-07 17:35 53.63280 9.99624 32 ft 6 kts 98°
2026-05-07 17:35 53.63265 9.99702 31 ft 8 kts 126°
2026-05-07 17:36 53.63209 9.99771 30 ft 11 kts 151°
2026-05-07 17:36 53.63136 9.99835 28 ft 10 kts 153°
2026-05-07 17:36 53.63077 9.99885 28 ft 9 kts 153°
2026-05-07 17:36 53.63015 9.99938 28 ft 10 kts 152°
2026-05-07 17:37 53.62952 9.99998 29 ft 9 kts 131°
2026-05-07 17:37 53.62968 10.00074 33 ft 5 kts 37°
2026-05-07 17:37 53.62999 10.00107 35 ft 6 kts 33°
2026-05-07 17:37 53.63032 10.00144 37 ft 0 kts 34°
2026-05-07 17:38 53.63041 10.00154 37 ft 6 kts 33°
2026-05-07 17:38 53.63076 10.00201 37 ft 4 kts 67°
2026-05-07 17:38 53.63066 10.00254 39 ft 4 kts 120°
2026-05-07 17:38 53.63055 10.00285 40 ft 2 kts 121°
2026-05-07 17:39 53.63042 10.00318 41 ft 3 kts 122°
2026-05-07 17:39 53.63036 10.00335 41 ft 1 kts 123°
2026-05-07 17:39 53.63032 10.00344 42 ft 0 kts 122°
2026-05-07 17:39 53.63031 10.00347 42 ft 0 kts 122°